[[{"header":{"parameterUnit":"m.s-1","parameterCategory":1,"la1":30.2991,"la2":30.254,"lo1":-89.0895,"lo2":-89.0444,"dy":0.0017,"dx":0.0017,"nx":28,"ny":28,"refTime":"2026-01-05T09:00:00:Z","depth":0,"parameterNumber":2,"parameterNumberName":"U-component_of_WINDS"},"data":[0,0,0,0,0,0,0,0,0,0,0,0,0,0,0,0,0,0,0,0,0,0,0,0,0,0,0,0,0,0,0,0,0,0,0,0,0,0,0,0,0,0,0,0,0,0,0,0,0,0,0,0,0,0,0,0,0,0,1.0605,1.0606,0,1.0668,1.0668,1.0669,1.0675,1.0674,1.0673,1.0673,1.0736,1.0739,1.0741,0,0,0,0,0,0,0,0,0,0,0,0,0,1.0491,1.0493,1.0605,1.0606,1.0607,1.0668,1.0668,1.0669,1.0675,1.0674,1.0673,1.0672,1.0736,1.0738,1.0741,0,0,0,0,0,0,0,0,0,0,0,0,0,1.0546,1.0494,1.0605,1.0617,1.0618,1.0667,1.0668,1.0669,1.0675,1.0674,1.0673,1.0672,1.0735,1.0738,1.0742,1.0783,0,0,1.0752,1.0754,0,0,0,0,0,0,0,0,1.0542,1.055,1.0614,1.0616,1.0618,1.0662,1.0651,1.0707,1.0675,1.0653,1.0673,1.0672,1.0713,1.0718,1.0732,1.0786,1.0789,1.0752,1.0755,1.0756,1.0757,0,0,0,0,0,0,0,1.0539,1.0547,1.063,1.0615,1.0618,1.0619,1.0626,1.0662,1.0688,1.0655,1.0656,1.0663,1.0713,1.0728,1.0733,1.079,1.0752,1.0755,1.0758,1.0759,1.0882,1.0883,0,0,0,0,0,0,1.0533,1.0544,1.0628,1.0632,1.0577,1.0622,1.0629,1.0649,1.0687,1.0692,1.0664,1.0663,1.0723,1.0729,1.0735,1.0787,1.0756,1.0759,1.0761,1.088,1.0882,1.0883,0,0,0,0,0,0,1.053,1.054,1.0625,1.0588,1.0599,1.0625,1.0647,1.0651,1.0666,1.0694,1.0699,1.0675,1.0722,1.0731,1.0771,1.0789,1.0761,1.0764,1.0879,1.0881,1.0882,1.089,0,0,0,0,0,0,1.0527,1.0539,1.0555,1.0588,1.0601,1.066,1.0648,1.0653,1.0672,1.0671,1.0705,1.071,1.0722,1.0766,1.0775,1.0794,1.0767,1.0878,1.088,1.0882,1.0888,1.0892,1.0895,0,0,0,0,0,1.0523,1.0554,1.0556,1.0566,1.0621,1.0661,1.0668,1.0682,1.0673,1.069,1.0708,1.0709,1.0786,1.077,1.078,1.08,1.0876,1.0879,1.0882,1.0887,1.0891,1.0895,0,0,0,0,0,0,1.0522,1.0559,1.0561,1.0604,1.0629,1.0662,1.0683,1.0686,1.0714,1.0713,1.0728,1.0736,1.0776,1.0792,1.0774,1.0842,1.083,1.0835,1.0831,1.0835,1.0838,1.0834,1.077,0,0,0,0,0,1.0527,1.0556,1.0587,1.0622,1.0635,1.0657,1.0674,1.0683,1.071,1.072,1.0741,1.0767,1.0798,1.0817,1.0846,1.089,1.0898,1.0909,1.0912,1.0915,1.0919,1.0944,1.095,1.0892,1.0892,1.0892,0,0,1.0537,1.0561,1.0579,1.0623,1.0643,1.0673,1.0665,1.0697,1.072,1.0725,1.0765,1.0781,1.0811,1.0854,1.0874,1.0869,1.0937,1.0918,1.092,1.0923,1.0947,1.0953,1.0958,1.0894,1.0893,1.0893,0,0,1.0572,1.0593,1.0625,1.0646,1.0677,1.0692,1.0699,1.0731,1.0743,1.0783,1.0788,1.0815,1.0866,1.0888,1.0905,1.0949,1.0951,1.0958,1.0975,1.0999,1.1004,1.1008,1.1024,1.103,1.0962,1.0962,1.0962,0,1.0581,1.0626,1.0641,1.0673,1.0692,1.0699,1.0731,1.0751,1.079,1.0804,1.0797,1.0862,1.0883,1.0931,1.0942,1.0956,1.0965,1.0954,1.1002,1.1006,1.101,1.1026,1.1032,1.0962,1.0962,1.0962,1.0962,0,1.0636,1.0668,1.069,1.0728,1.075,1.0782,1.0802,1.0822,1.0829,1.0844,1.0885,1.091,1.0945,1.0957,1.0964,1.1007,1.1002,1.0999,1.0987,1.1016,1.1031,1.1037,1.0963,1.0963,1.0963,1.0963,0,0,1.0671,1.0718,1.0726,1.0744,1.0779,1.0804,1.0837,1.0871,1.0888,1.0915,1.0944,1.0987,1.0984,1.1004,1.1014,1.1035,1.1069,1.1029,1.103,1.1036,1.1118,1.1121,1.1128,1.107,1.1071,1.1072,1.1116,0,1.071,1.0769,1.0783,1.0833,1.0863,1.087,1.0899,1.0924,1.0939,1.0966,1.0983,1.1014,1.1008,1.102,1.1041,1.106,1.1085,1.1057,1.1097,1.1098,1.109,1.1135,1.1138,1.1178,1.1122,1.1123,1.1123,0,1.0763,1.0792,1.0845,1.0878,1.0891,1.0916,1.0949,1.0976,1.1004,1.1014,1.1037,1.1044,1.1079,1.1065,1.1113,1.1093,1.111,1.1122,1.1124,1.1129,1.1113,1.1141,1.1191,1.1197,1.1132,1.1132,1.1131,0,1.0784,1.0836,1.0875,1.089,1.0929,1.0947,1.0964,1.0992,1.1012,1.104,1.1054,1.1086,1.1104,1.1129,1.1145,1.1133,1.1192,1.1179,1.1201,1.1201,1.1213,1.1213,1.1267,1.1224,1.1224,1.1223,1.1223,0,1.0826,1.0859,1.0886,1.0909,1.0946,1.0963,1.0999,1.1016,1.104,1.1068,1.1076,1.1101,1.1121,1.1149,1.1162,1.12,1.1208,1.1217,1.122,1.1217,1.1216,1.1228,1.1226,1.1225,1.1225,1.1224,1.1224,0,1.0856,1.0875,1.0918,1.0952,1.0961,1.0987,1.1015,1.1039,1.1055,1.109,1.1099,1.1123,1.1157,1.1176,1.1218,1.1226,1.127,1.1271,1.126,1.1262,1.1283,1.1281,1.1348,1.1357,1.1307,1.1308,1.1308,0,1.0882,1.0907,1.0944,1.0963,1.098,1.1011,1.1032,1.1049,1.107,1.1105,1.1125,1.1159,1.1188,1.1242,1.1263,1.1296,1.1298,1.132,1.1303,1.1299,1.1299,1.1298,1.1301,1.1322,1.1323,1.1323,1.1324,0,1.0926,1.0934,1.0964,1.0997,1.1022,1.1049,1.1075,1.1091,1.1112,1.1135,1.1171,1.1193,1.1236,1.1271,1.1305,1.1323,1.1327,1.1329,1.1336,1.1333,1.1326,1.133,1.1268,1.1327,1.1327,1.1326,1.1326,1.1326,1.0955,1.0978,1.1008,1.1041,1.1063,1.1087,1.1112,1.1131,1.116,1.1198,1.1206,1.1243,1.1272,1.1318,1.1337,1.1366,1.1362,1.1372,1.1375,1.1377,1.1378,1.132,1.1373,1.1373,1.1373,1.1372,1.1372,0,1.0999,1.1019,1.1049,1.1087,1.1113,1.1115,1.1145,1.1166,1.1199,1.1226,1.1254,1.1295,1.1328,1.1353,1.1387,1.1406,1.1409,1.1414,1.1413,1.1418,1.138,1.1371,1.1412,1.1412,1.1412,1.1412,1.1412,1.1412,1.1026,1.1066,1.1078,1.1128,1.1148,1.1185,1.1202,1.1225,1.1246,1.1292,1.132,1.1336,1.1362,1.1398,1.1429,1.1435,1.1448,1.1453,1.146,1.1424,1.142,1.1416,1.1408,1.1456,1.1456,1.1496,1.1496,1.1496]},{"header":{"parameterUnit":"m.s-1","parameterCategory":1,"la1":30.2991,"la2":30.254,"lo1":-89.0895,"lo2":-89.0444,"dy":0.0017,"dx":0.0017,"nx":28,"ny":28,"refTime":"2026-01-05T09:00:00:Z","depth":0,"parameterNumber":3,"parameterNumberName":"V-component_of_WINDS"},"data":[0,0,0,0,0,0,0,0,0,0,0,0,0,0,0,0,0,0,0,0,0,0,0,0,0,0,0,0,0,0,0,0,0,0,0,0,0,0,0,0,0,0,0,0,0,0,0,0,0,0,0,0,0,0,0,0,0,0,2.052,2.0519,0,2.0447,2.0446,2.0445,2.0384,2.0383,2.0383,2.0382,2.0307,2.0305,2.0304,0,0,0,0,0,0,0,0,0,0,0,0,0,2.0606,2.0605,2.052,2.0519,2.0518,2.0447,2.0446,2.0445,2.0384,2.0383,2.0382,2.0382,2.0307,2.0305,2.0304,0,0,0,0,0,0,0,0,0,0,0,0,0,2.0554,2.0604,2.052,2.0479,2.0475,2.0447,2.0446,2.0444,2.0384,2.0383,2.0382,2.0381,2.0308,2.0306,2.0303,2.031,0,0,2.0297,2.0296,0,0,0,0,0,0,0,0,2.0557,2.0551,2.0486,2.0482,2.0477,2.0423,2.0448,2.0399,2.0384,2.0419,2.0382,2.0381,2.0346,2.0341,2.0329,2.0306,2.0303,2.0297,2.0296,2.0295,2.0294,0,0,0,0,0,0,0,2.0561,2.0554,2.0491,2.0485,2.048,2.0464,2.0456,2.0439,2.0389,2.0416,2.0411,2.0403,2.0344,2.0331,2.0327,2.0302,2.0297,2.0295,2.0294,2.0293,2.028,2.0281,0,0,0,0,0,0,2.0571,2.0557,2.0493,2.0489,2.0516,2.0463,2.0454,2.0442,2.0389,2.038,2.0404,2.0401,2.0335,2.033,2.0324,2.0328,2.0295,2.0293,2.0292,2.0279,2.0281,2.0282,0,0,0,0,0,0,2.0573,2.0566,2.0496,2.0522,2.0512,2.0463,2.045,2.0441,2.0428,2.038,2.0371,2.0401,2.0334,2.0327,2.0314,2.0325,2.0292,2.029,2.0278,2.028,2.0281,2.0337,0,0,0,0,0,0,2.0576,2.0567,2.0569,2.0522,2.0511,2.0488,2.045,2.044,2.0425,2.042,2.0375,2.0366,2.0333,2.0317,2.0312,2.0321,2.0288,2.0277,2.0279,2.0281,2.0334,2.034,2.0345,0,0,0,0,0,2.0579,2.0588,2.057,2.0562,2.0513,2.0488,2.0482,2.0443,2.0426,2.0428,2.0397,2.0368,2.0324,2.0317,2.031,2.0319,2.0276,2.0279,2.0281,2.0331,2.0339,2.0345,0,0,0,0,0,0,2.0637,2.0581,2.056,2.0554,2.0527,2.0478,2.0479,2.0453,2.0429,2.0425,2.0379,2.0369,2.0361,2.0338,2.0331,2.0322,2.0296,2.0297,2.0337,2.0344,2.035,2.0356,2.0286,0,0,0,0,0,2.065,2.0635,2.0586,2.0586,2.0573,2.0529,2.0517,2.049,2.0459,2.0447,2.0415,2.0386,2.0366,2.0353,2.0332,2.033,2.0319,2.0333,2.0338,2.0343,2.0345,2.0342,2.0347,2.0288,2.0288,2.0288,0,0,2.0675,2.0642,2.0636,2.0597,2.0572,2.0558,2.0519,2.0506,2.0495,2.0445,2.0431,2.0406,2.037,2.0363,2.0358,2.0344,2.0358,2.0346,2.035,2.0349,2.0344,2.035,2.0355,2.029,2.029,2.0289,0,0,2.0713,2.0687,2.0684,2.066,2.0623,2.0593,2.0593,2.0548,2.053,2.0514,2.0477,2.0462,2.0428,2.0405,2.0389,2.0417,2.039,2.0411,2.0442,2.0439,2.0444,2.0448,2.0458,2.0462,2.0413,2.0413,2.0413,0,2.0749,2.0726,2.0685,2.0674,2.0658,2.0612,2.0608,2.0586,2.0545,2.0534,2.0519,2.0475,2.0448,2.0434,2.0441,2.0429,2.0427,2.0417,2.0446,2.045,2.0453,2.0462,2.0466,2.0416,2.0416,2.0415,2.0415,0,2.0772,2.0757,2.0759,2.072,2.0703,2.0696,2.0653,2.0641,2.0615,2.0587,2.0572,2.0538,2.0509,2.0503,2.0478,2.0486,2.0478,2.0455,2.0429,2.0462,2.047,2.0474,2.042,2.0419,2.0418,2.0417,0,0,2.0847,2.0784,2.0786,2.0767,2.0723,2.071,2.07,2.0672,2.0663,2.0635,2.0626,2.0598,2.0576,2.0558,2.0529,2.0526,2.0551,2.0504,2.0502,2.0514,2.0558,2.0576,2.0581,2.0532,2.0533,2.0533,2.0561,0,2.0879,2.0859,2.0821,2.0813,2.0798,2.0754,2.0745,2.0717,2.069,2.0673,2.0643,2.0624,2.0597,2.0585,2.0581,2.055,2.056,2.0547,2.0523,2.0523,2.0534,2.0585,2.0604,2.0632,2.0564,2.0565,2.0565,0,2.0913,2.0889,2.088,2.0836,2.0828,2.0821,2.0792,2.0776,2.0743,2.0723,2.0703,2.0671,2.0657,2.0632,2.0613,2.0605,2.0593,2.0576,2.0576,2.0573,2.0547,2.0584,2.064,2.0645,2.0569,2.0569,2.0569,0,2.0969,2.0933,2.0923,2.0909,2.0857,2.0854,2.0832,2.0797,2.0783,2.0757,2.0747,2.0719,2.0705,2.0684,2.0646,2.0631,2.0631,2.0603,2.0614,2.0615,2.0617,2.0618,2.0673,2.0608,2.0608,2.0608,2.0608,0,2.1009,2.1006,2.0948,2.0942,2.0936,2.0892,2.0887,2.0861,2.0831,2.0819,2.0778,2.0767,2.0717,2.07,2.0669,2.0658,2.0652,2.0635,2.0628,2.064,2.0642,2.0632,2.0629,2.0609,2.0609,2.0609,2.0608,0,2.1071,2.1032,2.1018,2.0971,2.0959,2.0957,2.0915,2.0907,2.0878,2.0863,2.0857,2.081,2.0788,2.0747,2.0714,2.0693,2.0689,2.0674,2.07,2.0696,2.071,2.0709,2.0761,2.0765,2.0698,2.0698,2.0699,0,2.11,2.1096,2.1048,2.1037,2.1017,2.1,2.0984,2.094,2.0926,2.0887,2.0884,2.0859,2.0836,2.0803,2.0766,2.074,2.0725,2.0745,2.0721,2.0733,2.0726,2.0727,2.0727,2.0751,2.0752,2.0753,2.0753,0,2.1155,2.1136,2.1115,2.1088,2.1071,2.1048,2.1022,2.1015,2.0965,2.0951,2.0928,2.0911,2.0876,2.0852,2.082,2.0797,2.0767,2.0761,2.0762,2.0775,2.079,2.0783,2.0716,2.076,2.076,2.0759,2.0759,2.0759,2.1201,2.1196,2.1161,2.114,2.1116,2.1092,2.1083,2.1052,2.1032,2.1001,2.0976,2.0955,2.0921,2.0875,2.0854,2.0837,2.0822,2.0824,2.0825,2.0826,2.0831,2.0793,2.083,2.083,2.083,2.083,2.083,0,2.1254,2.123,2.1211,2.1176,2.1159,2.1132,2.1102,2.109,2.1072,2.1043,2.1021,2.0995,2.0971,2.0931,2.0904,2.0898,2.0883,2.0892,2.0892,2.0887,2.0845,2.0847,2.0904,2.0904,2.0904,2.0904,2.0904,2.0904,2.128,2.127,2.1246,2.1223,2.1198,2.1178,2.1163,2.1141,2.1117,2.109,2.107,2.1044,2.1011,2.098,2.0957,2.0945,2.0938,2.0951,2.0936,2.0897,2.089,2.0884,2.0885,2.0949,2.0949,2.0979,2.098,2.098]}]]